Content
SEND FEEDBACK

Daily
Averages
Monthly
Summary
United States of America

RAPID CITY, SOUTH DAKOTA


Home > North America > United States > South Dakota
Elevation: 963 meters     Latitude: 44 03N     Longitude: 103 04W

WEATHER
 
SELECT A DAY
Number of Records: 202,792;   Date Range: 1/1/95 - 9/30/14
 
SHARE

PRINT THIS DATA

[ ← Previous Day ]
WEATHER ALMANAC - 23 MARCH, 2013
[ Next Day → ]
[ °F ]   °C
Weather ElementAverageHighLow
Temperature-7.6 °C-3.9 °C (1:52 pm)-12.8 °C (6:52 am)
Dewpoint-11.6 °C-8.9 °C (10:52 am)-15.6 °C (6:52 am)
Humidity73.9 %84 % (10:52 pm)65 % (4:52 pm)
Barometer1024.7 hPa1028.4 hPa (9:52 pm)1017.9 hPa (1:07 am)
Wind Speed28 km/h44.4 km/h (2:52 pm)
Wind Gust53.8 km/h (4:52 pm)
Weather ElementAverage
Visibility15.4 km
Wind DirectionNNW (323.5 °)

Weather ElementTotal
Precipitation---
Heating Degree Days26.7 (Base 18.3)
Averaged from 26 records on 23 March, 2013
WEATHER CONDITIONS BREAKOUT
WIND DIRECTION BREAKOUT
WEATHER BY HOUR - 23 MARCH, 2013
[ °F ]   °C
Local TimeTemperatureDewpointHumidityBarometerVisibilityWind DirectionWind SpeedGust SpeedPrecipitationEventsConditions
1:07 AM-7 °C-11 °C74 %1017.9 hPa12.9 kmNNW (340°)40.7 km/h50.1 km/h0 mmSnowLight Snow
1:52 AM-8.3 °C-12.2 °C74 %1021.7 hPa14.5 kmNNW (330°)35.2 km/h0 mmSnowLight Snow
2:52 AM-8.9 °C-12.8 °C74 %1022.4 hPa14.5 kmNNW (340°)33.3 km/h0 mmSnowLight Snow
3:52 AM-9.4 °C-13.3 °C74 %1022.4 hPa14.5 kmNNW (340°)33.3 km/h0 mmSnowLight Snow
4:52 AM-9.4 °C-12.8 °C77 %1023 hPa14.5 kmNNW (340°)29.6 km/h0 mmSnowLight Snow
5:52 AM-11.1 °C-13.9 °C80 %1024.4 hPa14.5 kmNorth (360°)11.1 km/h0 mmSnowLight Snow
6:52 AM-12.8 °C-15.6 °C80 %1024.4 hPa14.5 kmNNW (340°)16.7 km/h0 mmSnowLight Snow
7:52 AM-11.7 °C-15 °C77 %1025.4 hPa14.5 kmNorth (350°)11.1 km/h0 mmClear
8:52 AM-7.2 °C-12.2 °C68 %1025.4 hPa14.5 kmNorth (350°)11.1 km/hClear
9:52 AM-6.7 °C-11.1 °C71 %1025.7 hPa16.1 kmNorth (350°)18.5 km/hPartly Cloudy
10:14 AM-6 °C-10 °C74 %1021 hPa16.1 kmNNW (340°)31.5 km/hMostly Cloudy
10:27 AM-6 °C-9 °C80 %1021 hPa16.1 kmNorth (350°)35.2 km/hScattered Clouds
10:52 AM-5.6 °C-8.9 °C78 %1025.7 hPa16.1 kmNNW (340°)33.3 km/hClear
11:52 AM-5 °C-9.4 °C72 %1025.4 hPa16.1 kmNorth (350°)37 km/hClear
12:52 PM-5 °C-9.4 °C72 %1025.1 hPa16.1 kmNorth (360°)37 km/h46.3 km/hClear
1:52 PM-3.9 °C-8.9 °C69 %1024.7 hPa16.1 kmNorth (360°)29.6 km/hClear
2:52 PM-3.9 °C-9.4 °C66 %1024.7 hPa16.1 kmNorth (360°)44.4 km/h51.8 km/hClear
3:52 PM-4.4 °C-9.4 °C69 %1025.1 hPa16.1 kmNorth (360°)38.9 km/hClear
4:52 PM-4.4 °C-10 °C65 %1025.1 hPa16.1 kmNorth (360°)38.9 km/h53.8 km/hClear
5:52 PM-5 °C-10.6 °C65 %1025.7 hPa16.1 kmNorth (360°)44.4 km/h53.8 km/hClear
6:52 PM-6.1 °C-11.1 °C68 %1026.4 hPa16.1 kmNorth (360°)33.3 km/hClear
7:52 PM-7.2 °C-11.7 °C71 %1026.8 hPa16.1 kmNorth (10°)29.6 km/hClear
8:52 PM-10 °C-13.3 °C77 %1027.8 hPa16.1 kmCalmClear
9:52 PM-10.6 °C-13.3 °C81 %1028.4 hPa16.1 kmNorth (350°)16.7 km/hClear
10:52 PM-11.7 °C-13.9 °C84 %1028.1 hPa16.1 kmNorth (360°)18.5 km/hClear
11:52 PM-10.6 °C-13.3 °C81 %1027.8 hPa16.1 kmNorth (350°)18.5 km/hClear
Hourly data recorded from KRAP, located 0 kilometers away from Rapid City, South Dakota







STORIES FROM OUR PARTNERS